map of LCA home
LCA - Airport
Location
City:  Larnaca, Cyprus
ICAO:LCLK
IATA:LCA

Details
Type:Airport (Aerodrome, Airfield)
Use:Public/Civil, International (customs port of entry)
Latitude:3452'30"N (34.875117)
Longitude:3337'29"E (33.624850)
Datum:WGS 1984
Elevation:8 ft (2 m)
Variation:5.01E (WMM2015 magnetic declination)
0.09 annual change
Runways:1
Longest:9776 × 148 ft (2980 × 45 m), paved

Time
Time Zone:UTC+2 (DST+3)
Local Time:

Weather
METAR:LCLK 220430Z 33004KT 9999 TS FEW020 SCT025 FEW030CB 10/10 Q1011 NOSIG
TAF:LCLK 212330Z 2200/2224 33006KT 9999 FEW025 PROB30 2201/2205 5000 BR BKN008
BECMG 2206/2210 05010KT PROB30
TEMPO 2207/2218 5000 SHRA VCTS FEW025CB
BECMG 2210/2213 11009KT

Related Locations
Nearby:
Farthest:RVV: 11669 mi / 18780 km
Raivavae, Tubuai Islands, Austral Islands, PF

Find:

   beyond  
but within

Other Information
Maps:
NOTAMs:
Links:
Sources:

  
flag of Cyprus   

Sectional Chart

Flight Planning
at skyvector.com

Satellite Image

Google Maps Satellite view

 

Copyright © 2004-2018 Karl L. Swartz. All rights reserved.
The Great Circle Mapper name and logo are trademarks of the Great Circle Mapper.
All other trademarks mentioned herein belong to their respective owners.
Please see credits for attibutions and further copyright information.

  Follow gcmap on Facebook Follow gcmap on Twitter Follow gcmap on Google+ GCmap on LinkedIn

hCard Microformat

Geo Microformat